Regional Weather Roundup
Issued by NWS Goodland, KS

Home | Current Version | Previous Version | Text Only | Print | Product List | Glossary On
Versions: 1 2 3 4 5 6 7 8 9 10 11 12 13 14 15 16 17 18 19 20 21 22 23 24 25 26 27 28 29 30 31 32 33 34 35 36 37 38 39 40 41 42 43 44 45 46 47 48 49 50
000
ASUS43 KGLD 210759
RWRGLD

GOODLAND FORECAST AREA HOURLY WEATHER ROUNDUP
NATIONAL WEATHER SERVICE GOODLAND KS
200 AM MDT SUN SEP 21 2014

...OFFICIAL OBSERVATIONS...

CITY           SKY/WX    TMP DP  RH WIND       PRES   REMARKS
GOODLAND KS    PTCLDY    56  48  74 NE5       30.28S
HILL CITY KS   CLEAR     61  48  62 NE6       30.20R
IMPERIAL NEB   MOCLDY    54  46  74 NW7       30.28S
MCCOOK NEB     CLEAR     55  47  74 SW3       30.24S
AKRON CO       PTCLDY    54  44  69 E8        30.34R
BURLINGTON CO  PTCLDY    60  46  59 NE8       30.30R
LIMON CO       CLOUDY    56  46  69 N12       30.35R
$$

...UNOFFICIAL OBSERVATIONS...

CITY           SKY/WX    TMP DP  RH WIND       PRES   REMARKS
COLBY KS       CLEAR     57  52  82 N9        30.26S
GOVE KS          N/A     63  32  31 MISG        N/A
NORTON KS      CLEAR     55  43  62 N6        30.20R
SHARON SPRINGS   N/A     58  51  77 NE7         N/A
WAKEENEY KS      N/A     62  47  57 MISG        N/A
TRENTON NEB      N/A     55  32  41 N6          N/A
KIT CARSON CO    N/A     61  48  62 CALM        N/A
YUMA CO          N/A     54  45  72 CALM        N/A
$$


USA.gov is the U.S. government's official web portal to all federal, state and local government web resources and services.